Location: Newark
(33.6333°S, 78.8500°W)
Time: 23:58:42
(UTC+00:00)

Courier 1B - Pass Details

Date: 29 September 2019
Orbit: 962 x 1209 km, 28.3° (Epoch: 15 October)

Event Time Altitude Azimuth Distance (km) Brightness Sun altitude
Rises 22:50:11 0° 271° (W) 4,115 14.0 4.7°
Reaches altitude 10° 22:53:09 10° 275° (W) 3,139 12.8 4.0°
Maximum altitude 23:00:39 50° 348° (NNW) 1,453 8.6 2.5°
Drops below altitude 10° 23:07:49 10° 61° (ENE) 3,002 9.5 1.0°
Sets 23:10:36 0° 66° (ENE) 3,922 10.1 0.4°
